sat.trackr.live / text

‹ back to catalog

STARLINK-5498

NORAD 55633 · 2023-021F

PAYLOAD ACTIVE UNKNOWN

§ Identity

Operator
Country
US
Launch date
2023-02-17
Launch site
AFWTR
Launch vehicle
Mass (kg)
RCS (m²)

Purposes: comms

External: N2YO · Heavens-Above · Gunter

§ Orbital elements

Epoch: 2026-09-20T22:00:03.000096Z

Period
95.67 min
Inclination
70.0008°
Eccentricity
0.0003133
Mean motion
15.05242350 rev/d
Perigee alt
548.6 km
Apogee alt
552.9 km
Semi-major
6,928.9 km
B*
5.1136e-3
RAAN
72.1476°
Arg perigee
316.1793°
Mean anomaly
29.5256°
Rev number
571

§ Raw data

STARLINK-54981 55633U 23021F   26263.91670139  .00073856  00000+0  51136-2 0  99912 55633  70.0008  72.1476 0003133 316.1793  29.5256 15.05242350  5715

JSON: /api/v1/satellites/55633 · /tle

For live sub-satellite position, see the globe view (requires WebGL).

§ Visibility from observer

Set your observer location to see the next 7 days of passes ≥ 10°. The values pass through the URL so the page stays shareable.

No JS? Fill the form by hand. The geolocation button needs JavaScript.